Regional Weather Roundup
Issued by NWS Albany, NY

Current Version | Previous Version | Text Only | Print | Product List | Glossary On
Versions: 1 2 3 4 5 6 7 8 9 10 11 12 13 14 15 16 17 18 19 20 21 22 23 24 25 26 27
000 ASUS41 KALY 261210 RWRALY NEW YORK STATE HOURLY WEATHER ROUNDUP NATIONAL WEATHER SERVICE ALBANY NY 800 AM EDT MON SEP 26 2016 NOTE: "FAIR" INDICATES FEW OR NO CLOUDS BELOW 12,000 FEET WITH NO SIGNIFICANT WEATHER AND/OR NO OBSTRUCTIONS TO VISIBILITY. NYZ032-033-038>043-046>054-057>066-NYZ062>081-082-084-261300- EAST CITY SKY/WX TMP DP RH WIND PRES REMARKS ALBANY MOSUNNY 40 38 93 CALM 30.23S GLENS FALLS CLOUDY 37 34 89 CALM 30.22S POUGHKEEPSIE SUNNY 39 36 89 CALM 30.23R NEWBURGH SUNNY 43 41 93 CALM 30.23R MONTGOMERY SUNNY 41 39 93 CALM 30.22S WHITE PLAINS SUNNY 53 38 56 E6 30.20S ISLIP MOSUNNY 56 44 64 E9 30.21R NEW YORK CITY MOSUNNY 61 47 59 NE8 30.20R CENTRAL PARK SUNNY 55 46 71 E3 30.23R $$ NYZ005>009-017-018-044>046-055-056-261300- CENTRAL CITY SKY/WX TMP DP RH WIND PRES REMARKS FULTON CLOUDY 48 42 80 VRB3 30.10F SYRACUSE CLOUDY 43 40 89 E8 30.12S ROME CLOUDY 44 40 85 SE7 30.18S ELMIRA CLOUDY 44 39 82 CALM 30.12S BINGHAMTON SUNNY 43 37 79 SE10 30.14S MONTICELLO SUNNY 41 37 87 E6 30.21S $$ NYZ026>034-041>043-087-261300- NORTH CITY SKY/WX TMP DP RH WIND PRES REMARKS WATERTOWN CLOUDY 46 41 82 NE6 30.12F FORT DRUM NOT AVBL OGDENSBURG FAIR 40 39 97 CALM 30.14F MASSENA CLOUDY 35 32 88 NE5 30.17S WCI 31 PLATTSBURGH SUNNY 41 37 86 CALM 30.19S $$ NYZ001>004-010>016-019>021-085-261300- WEST CITY SKY/WX TMP DP RH WIND PRES REMARKS NIAGARA FALLS CLOUDY 52 43 71 SE5 29.96F BUFFALO MOCLDY 54 43 66 SE8 29.97F DUNKIRK CLEAR 59 47 64 SE7 29.95F JAMESTOWN CLEAR 52 43 71 S10 30.00F WELLSVILLE CLOUDY 52 43 71 SE8 30.08F ROCHESTER CLOUDY 53 41 63 SE8 30.03F PENN YAN MOSUNNY 52 41 66 S6 30.09S $$ KEY WCI = WIND CHILL INDEX VSB = VISIBILITY HX = HEAT INDEX $$

USA.gov is the U.S. government's official web portal to all federal, state and local government web resources and services.